K2RMB Weather Reports


time (UTC)temp
C
wind
direction
speed
KPH
gust
KPH
rain 1hr
cm
rain 24hr
cm
rain mn
cm
humidity
%
barometer
mb
20260506222220 11 96 0.0 0.0 0.28 1.47 1.47 94 1006.5
20260506221719 11 96 3.2 3.2 0.23 1.42 1.42 94 1006.2
20260506221217 12 96 4.8 4.8 0.18 1.40 1.40 94 1006.2
20260506220714 12 102 4.8 4.8 0.10 1.30 1.30 94 1006.2
20260506220208 13 102 8.0 9.7 0.03 1.22 1.22 94 1005.8
20260506215705 15 48 3.2 3.2 0.00 1.14 1.14 94 1005.5
20260506215201 15 48 0.0 0.0 0.00 1.14 1.14 94 1005.5
20260506214658 15 48 0.0 0.0 0.00 1.14 1.14 94 1005.8
20260506214155 15 48 3.2 3.2 0.00 1.14 1.14 94 1005.5
20260506213653 15 48 0.0 0.0 0.00 1.14 1.14 94 1005.5
20260506213150 15 48 0.0 0.0 0.00 1.14 1.14 94 1005.5
20260506212648 15 48 3.2 3.2 0.00 1.14 1.14 94 1005.5
20260506212148 15 48 0.0 0.0 0.00 1.14 1.14 94 1005.5
20260506211644 15 48 1.6 1.6 0.00 1.14 1.14 94 1005.5
20260506211141 15 48 0.0 0.0 0.00 1.14 1.14 94 1005.5
20260506210638 15 48 0.0 0.0 0.00 1.14 1.14 94 1005.8
20260506210134 15 48 0.0 0.0 0.00 1.14 1.14 94 1005.8
20260506205632 15 48 0.0 0.0 0.08 1.14 1.14 94 1005.8
20260506205132 15 48 3.2 3.2 0.08 1.14 1.14 94 1005.8
20260506204630 15 48 0.0 0.0 0.08 1.14 1.14 94 1005.8
20260506204127 15 48 3.2 3.2 0.08 1.14 1.14 94 1005.8
20260506203625 15 48 4.8 4.8 0.08 1.14 1.14 94 1005.8
20260506203121 15 48 0.0 0.0 0.08 1.14 1.14 94 1005.8
20260506202619 15 48 3.2 3.2 0.08 1.14 1.14 94 1006.2
20260506202115 15 48 3.2 3.2 0.08 1.14 1.14 94 1006.2
20260506201613 15 48 0.0 0.0 0.03 1.12 1.12 94 1006.2
20260506201109 15 48 0.0 0.0 0.03 1.12 1.12 94 1006.2
20260506200606 15 48 3.2 3.2 0.00 1.07 1.07 94 1006.2
20260506195559 15 48 0.0 0.0 0.03 1.02 1.02 93 1006.2
20260506195055 15 48 1.6 1.6 0.03 1.02 1.02 93 1006.5
20260506194553 15 48 4.8 4.8 0.03 1.02 1.02 93 1006.5
20260506194049 15 48 9.7 9.7 0.03 1.02 1.02 93 1006.5
20260506193547 15 48 3.2 3.2 0.00 0.99 0.99 93 1006.5
20260506193044 15 48 3.2 3.2 0.00 0.99 0.99 93 1006.5
20260506192541 15 48 8.0 9.7 0.00 0.99 0.99 93 1006.5
20260506192037 15 48 0.0 0.0 0.00 0.99 0.99 93 1006.5
20260506191534 15 48 0.0 0.0 0.00 0.99 0.99 93 1006.5
20260506191030 15 48 0.0 0.0 0.00 0.99 0.99 93 1006.2
20260506190527 15 48 1.6 1.6 0.00 0.99 0.99 93 1006.5
20260506190024 15 48 0.0 0.0 0.00 0.99 0.99 93 1006.5
20260506185521 15 48 0.0 0.0 0.10 0.99 0.99 93 1007.0
20260506185017 15 48 3.2 3.2 0.10 0.99 0.99 93 1007.0
20260506184515 15 48 4.8 4.8 0.08 0.94 0.94 93 1006.5
20260506184012 15 48 0.0 0.0 0.08 0.94 0.94 93 1007.0
20260506183508 15 48 3.2 3.2 0.08 0.94 0.94 93 1007.0
20260506183005 15 48 0.0 0.0 0.03 0.91 0.91 93 1007.0
20260506182502 15 48 1.6 1.6 0.03 0.91 0.91 93 1007.0
20260506181959 15 48 0.0 0.0 0.03 0.91 0.91 93 1006.5
20260506181457 15 54 0.0 0.0 0.03 0.91 0.91 93 1006.5
20260506180953 15 54 0.0 0.0 0.03 0.91 0.91 93 1006.5
20260506180450 15 54 0.0 0.0 0.00 0.86 0.86 93 1006.5
20260506175947 15 54 8.0 8.0 0.30 0.86 0.86 93 1006.5
20260506175443 15 48 3.2 3.2 0.28 0.84 0.84 93 1007.0
20260506174940 15 24 0.0 0.0 0.28 0.84 0.84 93 1007.0
20260506174438 15 24 3.2 3.2 0.23 0.79 0.79 93 1007.3
20260506173934 15 24 0.0 0.0 0.23 0.79 0.79 93 1007.3
20260506173432 15 24 0.0 0.0 0.18 0.74 0.74 93 1007.3
20260506172929 15 24 0.0 0.0 0.18 0.74 0.74 93 1007.6
20260506172426 15 24 8.0 8.0 0.15 0.71 0.71 93 1007.3
20260506171923 15 18 0.0 0.0 0.08 0.64 0.64 93 1007.6
20260506171420 15 18 3.2 3.2 0.03 0.58 0.58 93 1007.6
20260506170918 15 18 3.2 3.2 0.03 0.58 0.58 93 1007.6
20260506170414 15 18 3.2 3.2 0.00 0.56 0.56 93 1008.0
20260506165913 15 48 6.4 6.4 0.30 0.56 0.56 93 1008.0
20260506165411 15 48 8.0 9.7 0.28 0.51 0.51 93 1008.0
20260506164907 15 48 0.0 0.0 0.23 0.46 0.46 93 1008.0
20260506164403 15 48 0.0 0.0 0.23 0.46 0.46 93 1008.0
20260506163901 15 48 4.8 4.8 0.18 0.43 0.43 93 1008.0
20260506163355 15 48 0.0 0.0 0.15 0.38 0.38 93 1008.0
20260506162850 15 48 0.0 0.0 0.10 0.36 0.36 92 1008.0
20260506162349 15 48 0.0 0.0 0.08 0.30 0.30 93 1008.0
20260506161846 15 48 3.2 3.2 0.08 0.30 0.30 92 1008.3
20260506161343 15 48 0.0 0.0 0.03 0.28 0.28 92 1008.3
20260506160841 15 48 1.6 1.6 0.03 0.28 0.28 92 1008.3
20260506160338 15 48 0.0 0.0 0.00 0.23 0.23 92 1008.3
20260506155836 15 48 0.0 0.0 0.10 0.18 0.18 91 1008.3
20260506155332 15 48 3.2 3.2 0.10 0.18 0.18 92 1008.0
20260506153444 15 54 3.2 3.2 0.08 0.15 0.15 92 1008.3
20260506152942 15 54 1.6 1.6 0.08 0.15 0.15 92 1008.3
20260506152439 15 54 3.2 3.2 0.03 0.10 0.10 91 1008.6
20260506151937 15 54 1.6 1.6 0.03 0.10 0.10 91 1008.6
20260506151434 15 54 0.0 0.0 0.03 0.10 0.10 91 1009.0
20260506150932 15 54 4.8 4.8 0.00 0.08 0.08 90 1009.0
20260506150427 15 54 0.0 0.0 0.00 0.08 0.08 90 1009.0
20260506145925 15 54 0.0 0.0 0.08 0.08 0.08 90 1009.0
20260506145421 15 54 0.0 0.0 0.03 0.03 0.03 89 1009.0
20260506144919 16 54 1.6 1.6 0.03 0.03 0.03 87 1009.0
20260506144415 16 54 0.0 0.0 0.00 0.00 0.00 85 1009.0
20260506143914 16 54 0.0 0.0 0.00 0.00 0.00 84 1009.0
20260506143410 16 42 0.0 0.0 0.00 0.00 0.00 82 1009.3
20260506142908 17 48 3.2 3.2 0.00 0.00 0.00 80 1009.3
20260506142406 17 48 0.0 0.0 0.00 0.00 0.00 79 1009.3
20260506141904 17 48 0.0 0.0 0.00 0.00 0.00 78 1009.0
20260506141401 17 48 3.2 3.2 0.00 0.00 0.00 77 1009.3
20260506140900 17 48 0.0 0.0 0.00 0.00 0.00 77 1009.0
20260506140356 17 48 0.0 0.0 0.00 0.00 0.00 77 1009.0
20260506135853 17 42 0.0 0.0 0.00 0.00 0.00 76 1008.6
20260506135350 17 48 4.8 4.8 0.00 0.00 0.00 76 1008.6
20260506134846 17 48 4.8 4.8 0.00 0.00 0.00 76 1008.6
20260506134343 17 54 1.6 1.6 0.00 0.00 0.00 76 1008.6
20260506133840 17 54 3.2 3.2 0.00 0.00 0.00 76 1008.6
20260506133336 17 54 0.0 0.0 0.00 0.00 0.00 75 1008.3
20260506132833 17 54 4.8 4.8 0.00 0.00 0.00 75 1008.3
20260506132330 17 54 0.0 0.0 0.00 0.00 0.00 75 1008.6
20260506131828 17 54 0.0 0.0 0.00 0.00 0.00 76 1008.3
20260506131324 17 54 9.7 9.7 0.00 0.00 0.00 77 1008.6
20260506130822 16 54 0.0 0.0 0.00 0.00 0.00 76 1008.6
20260506130318 16 54 3.2 3.2 0.00 0.00 0.00 77 1008.6
20260506125816 16 54 0.0 0.0 0.00 0.00 0.00 78 1008.6
20260506125314 16 54 3.2 3.2 0.00 0.00 0.00 78 1009.0
20260506124813 16 54 0.0 0.0 0.00 0.00 0.00 79 1009.0
20260506124309 16 54 0.0 0.0 0.00 0.00 0.00 78 1009.3
20260506123807 16 54 4.8 4.8 0.00 0.00 0.00 77 1009.3
20260506123305 16 48 4.8 4.8 0.00 0.00 0.00 77 1009.0
20260506122801 16 48 4.8 4.8 0.00 0.00 0.00 77 1009.3
20260506122259 16 60 4.8 4.8 0.00 0.00 0.00 77 1009.3
20260506121757 16 60 1.6 1.6 0.00 0.00 0.00 78 1009.3
20260506121253 16 60 9.7 9.7 0.00 0.00 0.00 77 1009.3
20260506120751 16 54 4.8 4.8 0.00 0.00 0.00 77 1009.0
20260506120249 16 36 4.8 4.8 0.00 0.00 0.00 77 1009.0
20260506115746 16 36 14.5 14.5 0.00 0.00 0.00 78 1009.0
20260506115244 16 54 0.0 0.0 0.00 0.00 0.00 78 1009.0
20260506114741 16 54 3.2 3.2 0.00 0.00 0.00 78 1009.0
20260506114239 16 54 1.6 1.6 0.00 0.00 0.00 78 1008.6
20260506113737 16 48 4.8 4.8 0.00 0.00 0.00 78 1008.6
20260506113234 16 48 3.2 3.2 0.00 0.00 0.00 76 1008.3
20260506112730 16 48 3.2 3.2 0.00 0.00 0.00 75 1008.6
20260506112228 16 42 8.0 9.7 0.00 0.00 0.00 75 1008.6
20260506111725 16 36 0.0 0.0 0.00 0.00 0.00 75 1009.0
20260506111224 15 30 0.0 0.0 0.00 0.00 0.00 76 1009.0
20260506110721 15 48 3.2 3.2 0.00 0.00 0.00 76 1009.0
20260506110218 15 48 4.8 4.8 0.00 0.00 0.00 77 1009.0
20260506105714 15 48 3.2 3.2 0.00 0.00 0.00 77 1009.0
20260506105211 15 48 3.2 3.2 0.00 0.00 0.00 76 1008.6
20260506104709 15 114 4.8 4.8 0.00 0.00 0.00 77 1008.3
20260506104207 15 120 1.6 1.6 0.00 0.00 0.00 80 1009.0
20260506103703 15 120 3.2 3.2 0.00 0.00 0.00 79 1008.6
20260506103200 14 120 0.0 0.0 0.00 0.00 0.00 81 1008.6
20260506102659 13 120 3.2 3.2 0.00 0.00 0.00 81 1008.6
20260506102156 13 120 3.2 3.2 0.00 0.00 0.00 83 1008.3
20260506101652 12 120 6.4 6.4 0.00 0.00 0.00 89 1008.6
20260506101149 11 120 0.0 0.0 0.00 0.00 0.00 92 1008.3
20260506100648 11 126 0.0 0.0 0.00 0.00 0.00 94 1008.6
20260506100145 10 126 0.0 0.0 0.00 0.00 0.00 94 1008.3
20260506095644 10 126 0.0 0.0 0.00 0.00 0.00 94 1008.6
20260506095140 11 126 0.0 0.0 0.00 0.00 0.00 94 1008.3
20260506094638 11 126 0.0 0.0 0.00 0.00 0.00 94 1008.6
20260506094135 10 126 0.0 0.0 0.00 0.00 0.00 94 1008.6
20260506093634 10 126 0.0 0.0 0.00 0.00 0.00 94 1008.3
20260506093130 10 126 0.0 0.0 0.00 0.00 0.00 94 1008.3
20260506092628 10 126 0.0 0.0 0.00 0.00 0.00 94 1008.6
20260506092125 10 126 0.0 0.0 0.00 0.00 0.00 94 1008.6
20260506091623 10 126 0.0 0.0 0.00 0.00 0.00 94 1008.6
20260506091120 10 126 0.0 0.0 0.00 0.00 0.00 94 1009.0
20260506090618 10 126 0.0 0.0 0.00 0.00 0.00 94 1009.0
20260506090114 10 126 0.0 0.0 0.00 0.00 0.00 94 1009.0
20260506085611 10 126 0.0 0.0 0.00 0.00 0.00 94 1009.0
20260506085108 10 126 0.0 0.0 0.00 0.00 0.00 94 1009.3
20260506084604 11 126 0.0 0.0 0.00 0.00 0.00 94 1009.0
20260506084101 11 126 0.0 0.0 0.00 0.00 0.00 94 1009.0
20260506083558 11 126 0.0 0.0 0.00 0.00 0.00 94 1009.0
20260506083055 11 126 0.0 0.0 0.00 0.00 0.00 94 1009.0
20260506082552 11 126 0.0 0.0 0.00 0.00 0.00 94 1009.0
20260506082048 11 126 0.0 0.0 0.00 0.00 0.00 94 1009.0
20260506081546 11 126 0.0 0.0 0.00 0.00 0.00 94 1009.3
20260506081043 11 126 0.0 0.0 0.00 0.00 0.00 94 1009.3
20260506080541 11 126 0.0 0.0 0.00 0.00 0.00 94 1009.3
20260506073524 12 126 0.0 0.0 0.00 0.00 0.00 93 1009.8
20260506073021 12 126 0.0 0.0 0.00 0.00 0.00 93 1009.8
20260506072518 12 126 0.0 0.0 0.00 0.00 0.00 93 1010.1
20260506072016 12 126 0.0 0.0 0.00 0.00 0.00 93 1010.1
20260506071514 12 126 0.0 0.0 0.00 0.00 0.00 93 1009.8
20260506071011 12 126 0.0 0.0 0.00 0.00 0.00 93 1009.8
20260506070508 12 126 0.0 0.0 0.00 0.00 0.00 93 1009.8
20260506062445 13 126 0.0 0.0 0.00 0.00 0.00 92 1009.8
20260506061941 13 126 0.0 0.0 0.00 0.00 0.00 92 1009.8
20260506061438 13 126 0.0 0.0 0.00 0.00 0.00 92 1010.1
20260506060936 13 126 0.0 0.0 0.00 0.00 0.00 92 1009.8
20260506060434 13 126 0.0 0.0 0.00 0.00 0.00 91 1010.1
20260506051406 14 126 0.0 0.0 0.00 0.00 0.00 90 1010.4
20260506050903 14 126 3.2 3.2 0.00 0.00 0.00 90 1010.8
20260506050400 14 126 0.0 0.0 0.00 0.00 0.00 89 1010.8
20260506044851 14 126 0.0 0.0 0.00 0.00 0.00 89 1010.8
20260506044349 14 126 0.0 0.0 0.00 0.00 0.00 88 1010.4
20260506043845 14 126 0.0 0.0 0.00 0.00 0.00 89 1010.8
20260506043342 14 126 0.0 0.0 0.00 0.00 0.00 92 1010.4
20260506042841 14 126 0.0 0.0 0.00 0.00 0.00 92 1010.4
20260506042340 14 126 0.0 0.0 0.00 0.00 0.00 92 1010.1
20260506041838 14 126 0.0 0.0 0.00 0.00 0.00 92 1010.1
20260506041335 14 126 0.0 0.0 0.00 0.00 0.00 92 1010.1
20260506040832 14 126 0.0 0.0 0.00 0.00 0.00 92 1010.1
20260506040329 14 126 0.0 0.0 0.00 0.00 0.00 92 1010.1
20260506035825 14 126 0.0 0.0 0.00 0.10 0.10 92 1010.1
20260506035323 14 126 0.0 0.0 0.00 0.10 0.10 92 1010.1
20260506034820 14 126 0.0 0.0 0.00 0.10 0.10 92 1010.1
20260506034317 14 126 0.0 0.0 0.00 0.10 0.10 93 1010.1
20260506033814 14 126 0.0 0.0 0.00 0.10 0.10 93 1010.1
20260506033311 14 126 0.0 0.0 0.00 0.10 0.10 93 1010.8
20260506032808 14 126 0.0 0.0 0.00 0.10 0.10 93 1010.4
20260506032306 14 126 0.0 0.0 0.00 0.10 0.10 93 1010.1
20260506031801 14 126 0.0 0.0 0.00 0.10 0.10 93 1010.1
20260506031258 14 126 0.0 0.0 0.00 0.10 0.10 93 1010.1
20260506030756 14 126 0.0 0.0 0.00 0.10 0.10 93 1010.1
20260506030254 14 126 0.0 0.0 0.00 0.10 0.10 93 1010.1
20260506025751 14 126 0.0 0.0 0.03 0.10 0.10 93 1009.8
20260506025247 14 126 0.0 0.0 0.03 0.10 0.10 93 1010.1
20260506024744 15 126 0.0 0.0 0.03 0.10 0.10 93 1010.1
20260506024241 15 126 0.0 0.0 0.03 0.10 0.10 92 1010.1
20260506023737 15 126 0.0 0.0 0.03 0.10 0.10 92 1010.1
20260506023234 15 126 0.0 0.0 0.03 0.10 0.10 92 1010.1
20260506022731 15 126 0.0 0.0 0.03 0.10 0.10 92 1010.1
20260506022229 15 126 0.0 0.0 0.03 0.10 0.10 92 1010.1
20260506021726 15 126 0.0 0.0 0.03 0.10 0.10 91 1010.1
20260506021223 15 126 0.0 0.0 0.03 0.10 0.10 91 1010.1
20260506020720 15 126 0.0 0.0 0.03 0.10 0.10 91 1010.1
20260506020218 15 126 0.0 0.0 0.00 0.08 0.08 91 1010.1
20260506015715 15 126 0.0 0.0 0.00 0.08 0.08 91 1010.1
20260506015213 15 126 0.0 0.0 0.00 0.08 0.08 91 1010.1
20260506014710 15 126 0.0 0.0 0.00 0.08 0.08 90 1010.1
20260506014205 15 126 0.0 0.0 0.00 0.08 0.08 90 1010.1
20260506013703 15 126 0.0 0.0 0.00 0.08 0.08 89 1010.1
20260506013200 15 126 0.0 0.0 0.00 0.08 0.08 89 1009.8
20260506012656 15 126 0.0 0.0 0.00 0.08 0.08 89 1010.1
20260506012153 15 126 0.0 0.0 0.00 0.08 0.08 89 1010.1
20260506011651 15 126 0.0 0.0 0.00 0.08 0.08 89 1010.1
20260506011147 15 126 0.0 0.0 0.00 0.08 0.08 89 1009.8
20260506010646 15 126 0.0 0.0 0.00 0.08 0.08 90 1009.8
20260506010142 15 126 4.8 4.8 0.00 0.08 0.08 89 1009.3
20260506005639 15 126 0.0 0.0 0.00 0.08 0.08 88 1009.3
20260506005136 16 126 0.0 0.0 0.00 0.08 0.08 88 1009.0
20260506004632 15 126 0.0 0.0 0.00 0.08 0.08 86 1009.0
20260506004130 15 126 0.0 0.0 0.00 0.08 0.08 87 1009.3
20260506003626 15 126 0.0 0.0 0.00 0.08 0.08 87 1009.0
20260506003122 16 126 0.0 0.0 0.00 0.08 0.08 87 1009.0
20260506002618 15 126 0.0 0.0 0.00 0.08 0.08 87 1009.0
20260506002114 15 126 0.0 0.0 0.00 0.08 0.08 87 1009.0
20260506001610 16 126 0.0 0.0 0.00 0.08 0.08 88 1008.6
20260506001108 16 126 0.0 0.0 0.00 0.08 0.08 87 1008.6
20260506000605 16 126 0.0 0.0 0.00 0.08 0.08 87 1008.3
20260505235600 16 126 0.0 0.0 0.00 0.08 0.08 85 1008.6
20260505235057 16 126 0.0 0.0 0.00 0.08 0.08 85 1009.0
20260505234554 16 126 0.0 0.0 0.00 0.08 0.08 83 1008.6
20260505234050 16 126 0.0 0.0 0.00 0.08 0.08 83 1009.0
20260505233548 16 126 0.0 0.0 0.00 0.08 0.08 84 1008.6
20260505233045 16 126 0.0 0.0 0.00 0.08 0.08 83 1008.6
20260505232543 16 126 0.0 0.0 0.00 0.08 0.08 83 1009.0
20260505232040 16 126 0.0 0.0 0.00 0.08 0.08 85 1008.6
20260505231537 16 132 3.2 3.2 0.00 0.08 0.08 81 1008.6
20260505231036 16 132 0.0 0.0 0.00 0.08 0.08 85 1008.6
20260505230533 16 132 0.0 0.0 0.00 0.08 0.08 85 1009.0
20260505230029 17 132 0.0 0.0 0.00 0.08 0.08 84 1009.3
20260505225526 17 132 0.0 0.0 0.03 0.08 0.08 82 1009.0
20260505225022 16 132 0.0 0.0 0.03 0.08 0.08 82 1009.0
20260505224519 17 132 0.0 0.0 0.03 0.08 0.08 84 1009.3
20260505224017 17 132 0.0 0.0 0.03 0.08 0.08 77 1009.0
20260505223514 17 132 3.2 3.2 0.03 0.08 0.08 78 1009.0
20260505223010 17 132 4.8 4.8 0.03 0.08 0.08 71 1009.0
20260505222506 17 132 3.2 3.2 0.03 0.08 0.08 76 1009.0